Weather in Arefino

Russia / Vladimir Oblast     56°10′22″N   42°38′26″E
temp.,
°C
wind,
m/s
gust,
m/s
humid.,
%
clouds,
%
prec.,
mm/h
press.,
hPa
HPBL,
m
18 august, thu
thu1800:00+18e36765 0.0 1021119
03:00+16e377929 0.0 1022125
06:00+17e39784 0.0 1022217
09:00+23e58525 0.0 1022699
12:00+27e57405 0.0 10221539
15:00+27ese67337 0.0 10221773
18:00+24ese5104529 0.0 1022934
21:00+19e3116497 0.0 1023225
19 august, fri
fri1900:00+18ene41374100 0.0 1024347
03:00+17e41272100 0.0 1025434
06:00+16e41257100 0.0 1027472
09:00+19e6114382 0.0 1028726
12:00+23ese793255 0.0 10281259
15:00+24ese793146 0.0 10281423
18:00+22e594124 0.0 1028804
21:00+17e413523 0.0 1029392
20 august, sat
sat2000:00+15e412581 0.0 1029319
03:00+13e4106013 0.0 1030204
06:00+13e31060100 0.0 1030212
09:00+20ese5837100 0.0 1031449
12:00+25ese6726100 0.0 10301330
15:00+25ese672699 0.0 10291551
18:00+23ese483722 0.0 1029383
21:00+16e385961 0.0 1029108
21 august, sun
sun2100:00+14ese356766 0.0 102971
03:00+12ese236331 0.0 103042
06:00+12ese256248 0.0 102990
09:00+21se354071 0.0 1029469
12:00+26se452830 0.0 10281606
15:00+28ese45275 0.0 10262019
18:00+25e484365 0.0 1026417
21:00+19e396281 0.0 1026146
22 august, mon
mon2200:00+17ese367680 0.0 102697
03:00+16ese347656 0.0 102760
06:00+17ese267473 0.0 1028123
09:00+24ese3548100 0.0 1028454
12:00+29ese45349 0.0 10272301
15:00+30ese663026 0.0 10262634
18:00+27ese584522 0.0 1026775
21:00+20ese396718 0.0 1027170